KUZA

Details ICAO KUZA (RKH)
Name ROCK HILL YORK CO BRYANT
Region United States
Timezone America/New_York (UTC-4.0)
Plans Departing 13
Arriving 9
Stats Elevation 667 ft / 203 m (AMSL)
Location 34.987825° -81.057174°
Runways 1
Magnetic Variation 7.603° W
Sunrise 2018-05-25 10:15:50 UTC / 2018-05-25 06:15:50 Local
Sunset 2018-05-26 00:29:25 UTC / 2018-05-25 20:29:25 Local
Advertisement - Login to hide

Runways

ID Width Length Bearing (true) Bearing (mag) Surface Threshold Offset Overrun Length
02 100 ft / 30 m 5,513 ft / 1,680 m 11.18° 18.78° Asphalt 0 ft / 0 m 0 ft / 0 m
20 100 ft / 30 m 5,513 ft / 1,680 m 191.18° 198.78° Asphalt 0 ft / 0 m 0 ft / 0 m

Approach Navaids

Runway Type Ident Frequency Range Bearing (true) Bearing (mag) Slope Elevation
02 Localiser IUZA 108.50 MHz 18 nm / 33 km 11.18° 18.78° - 667 ft / 203 m (AMSL)
02 Glidescope IUZA 108.50 MHz 10 nm / 19 km 11.18° 18.78° 3.00° 667 ft / 203 m (AMSL)

Map

Weather


0- 5 10 15 20 25 30 35+ Temperature / ° C

Clouds and Precipitation
Forecast for 2018-05-25 18:00 UTC. Updated 20 minutes ago

Ground ~20,000 ft ~40,000 ft Winds

METAR

KUZA 251654Z AUTO VRB05KT 10SM SCT024 SCT034 BKN055 26/21 A3010 RMK AO2 RAE18 SLP180 P0000 T02610211

TAF

Not found

Frequencies

Recorded 120.77 MHz ASOS
Clearance 126.85 MHz CLNC DEL
Unicom 123.05 MHz CTAF/UNICOM
Approach 120.05 MHz CHARLOTTE APP/DEP
Warning: Do not use this data for real-world aviation or navigation. No guarantee of current accuracy is given.